Date,TemperatureHighF,TemperatureAvgF,TemperatureLowF,DewpointHighF,DewpointAvgF,DewpointLowF,HumidityHigh,HumidityAvg,HumidityLow,PressureMaxIn,PressureMinIn,WindSpeedMaxMPH,WindSpeedAvgMPH,GustSpeedMaxMPH,PrecipitationSumIn
2013-1-1,35.7,29.5,16.4,27.0,16.1,4.0,78,59,43,29.80,29.55,11,2,0,0.08
2013-1-2,27.4,16.9,5.9,16.0,4.9,-7.0,70,59,49,29.98,29.77,8,1,0,0.00
2013-1-3,24.1,11.4,1.9,2.0,-3.2,-7.0,68,53,34,30.00,29.86,4,0,0,0.00
2013-1-4,36.8,26.9,7.2,24.0,18.3,1.0,85,71,57,29.85,29.65,10,1,0,0.00
2013-1-5,39.8,32.0,20.1,24.0,19.1,15.0,81,61,39,30.14,29.68,8,1,0,0.04
2013-1-6,42.2,30.9,19.0,29.0,24.2,15.0,90,77,58,30.10,29.80,5,0,0,0.03
2013-1-7,34.5,30.1,23.3,29.0,24.9,17.0,90,81,65,30.28,29.83,6,0,0,0.00
2013-1-8,45.3,33.9,24.8,28.0,25.6,23.0,94,74,48,30.24,30.11,6,0,0,0.00
2013-1-9,42.4,34.5,24.6,34.0,27.0,21.0,87,75,56,30.28,29.83,7,0,0,0.00
2013-1-10,45.5,40.0,31.1,31.0,25.9,24.0,75,58,46,30.41,29.86,15,3,0,0.01
2013-1-11,39.1,33.4,25.7,37.0,28.2,22.0,95,81,68,30.40,30.12,2,0,0,0.11
2013-1-12,42.6,39.7,37.7,43.0,38.8,36.0,100,96,95,30.11,30.01,2,0,0,0.03
2013-1-13,50.5,44.8,40.0,49.0,44.1,39.0,98,97,93,30.03,29.85,4,0,0,0.01
2013-1-14,61.7,50.4,39.2,52.0,42.5,27.0,96,76,48,30.13,29.72,6,1,0,0.00
2013-1-15,41.1,36.1,30.7,29.0,26.1,23.0,79,68,56,30.20,30.10,2,0,0,0.00
2013-1-16,32.1,30.7,27.9,31.0,28.2,24.0,95,90,76,30.13,29.69,0,0,0,0.00
2013-1-17,41.8,32.2,27.1,35.0,25.1,8.0,96,77,44,29.98,29.68,6,1,0,0.33
2013-1-18,27.0,18.9,13.2,11.0,-0.7,-9.0,69,44,30,30.31,29.95,7,1,0,0.00
2013-1-19,46.1,34.5,18.9,30.0,20.6,7.0,76,58,44,30.24,29.74,15,2,0,0.12
2013-1-20,52.9,39.6,27.3,32.0,24.3,11.0,77,56,28,29.78,29.38,11,2,0,0.02
2013-1-21,27.3,23.9,19.3,20.0,8.1,-1.0,90,53,38,29.95,29.67,6,1,0,0.00
2013-1-22,26.0,19.5,10.8,19.0,8.8,-4.0,90,66,32,29.94,29.63,8,1,0,0.00
2013-1-23,13.3,8.0,2.0,0.0,-9.0,-13.0,64,47,33,30.01,29.92,9,1,0,0.00
2013-1-24,15.3,7.6,-0.8,-7.0,-11.5,-15.0,55,42,32,30.06,29.91,12,2,0,0.00
2013-1-25,22.0,14.3,6.4,-1.0,-5.1,-7.0,56,43,29,30.15,29.95,11,1,0,0.00
2013-1-26,24.5,16.7,10.7,10.0,2.3,-6.0,86,57,28,30.08,29.88,5,1,0,0.00
2013-1-27,29.1,19.4,12.8,3.0,-1.2,-7.0,65,42,25,30.33,30.07,9,1,0,0.00
2013-1-28,29.4,21.9,14.0,23.0,8.9,-4.0,92,61,26,30.32,29.92,0,0,0,0.00
2013-1-29,35.5,29.0,23.3,31.0,25.9,21.0,94,88,77,30.08,29.92,3,0,0,0.13
2013-1-30,59.2,44.6,32.3,57.0,43.3,31.0,97,95,89,30.04,29.33,13,1,0,0.30
2013-1-31,61.9,47.2,30.4,59.0,36.2,12.0,95,68,41,29.42,28.80,18,4,0,0.37
2013-2-1,33.9,27.5,18.3,15.0,9.4,6.0,64,47,33,29.94,29.43,15,2,0,0.00
2013-2-2,29.0,22.9,14.9,12.0,7.3,4.0,68,53,37,30.11,29.92,8,0,0,0.00
2013-2-3,27.8,24.4,19.5,21.0,18.4,12.0,92,78,55,29.93,29.59,7,0,0,0.00
2013-2-4,31.0,24.5,19.7,18.0,9.7,3.0,82,56,33,29.78,29.58,12,1,0,0.00
2013-2-5,29.7,21.9,14.8,17.0,8.7,3.0,76,58,40,29.91,29.78,3,0,0,0.00
2013-2-6,38.7,28.5,21.5,26.0,18.0,2.0,91,67,39,30.18,29.81,6,1,0,0.02
2013-2-7,27.6,20.9,15.1,6.0,-1.3,-6.0,53,39,24,30.41,30.17,3,0,0,0.00
2013-2-8,28.9,19.9,16.3,28.0,15.9,6.0,95,85,48,30.39,29.58,16,3,0,0.00
2013-2-9,23.1,18.1,14.4,21.0,14.8,8.0,93,86,72,30.04,29.48,18,4,0,0.00
2013-2-10,38.7,22.8,9.2,14.0,7.2,2.0,74,54,31,30.25,30.04,4,0,0,0.04
2013-2-11,38.5,27.1,14.3,37.0,22.7,4.0,96,84,62,30.23,29.48,1,0,0,0.27
2013-2-12,45.8,37.9,33.5,34.0,30.4,28.0,97,76,51,29.72,29.45,8,1,0,0.02
2013-2-13,44.1,34.8,27.8,28.0,24.5,22.0,81,68,45,29.74,29.60,8,0,0,0.00
2013-2-14,44.0,34.8,28.0,26.0,23.2,21.0,88,65,43,29.86,29.59,6,0,0,0.00
2013-2-15,51.8,37.7,24.3,34.0,29.1,22.0,91,73,48,29.86,29.77,13,1,0,0.00
2013-2-16,40.2,34.7,30.2,32.0,27.3,20.0,94,76,52,29.83,29.61,6,1,0,0.02
2013-2-17,31.3,21.9,16.3,20.0,11.1,3.0,89,65,43,29.61,29.21,15,4,0,0.00
2013-2-18,32.4,22.5,14.4,5.0,0.9,-3.0,59,42,24,30.00,29.48,12,3,0,0.00
2013-2-19,40.8,32.7,21.4,39.0,20.0,2.0,96,63,34,30.02,29.44,4,0,0,0.40
2013-2-20,40.2,33.3,26.7,39.0,22.9,15.0,97,67,47,29.62,29.38,8,1,0,0.00
2013-2-21,30.5,26.1,23.1,17.0,13.3,10.0,72,59,47,30.04,29.60,11,2,0,0.00
2013-2-22,39.5,30.4,21.9,26.0,21.1,15.0,82,69,45,30.27,30.04,10,1,0,0.00
2013-2-23,38.7,34.1,29.6,34.0,29.6,25.0,94,83,71,30.22,29.84,4,0,0,0.04
2013-2-24,37.1,33.6,29.8,36.0,32.4,29.0,96,95,94,29.83,29.61,7,2,0,0.34
2013-2-25,41.4,33.1,27.6,32.0,29.5,26.0,95,87,66,30.11,29.78,3,0,0,0.37
2013-2-26,42.2,34.7,26.9,36.0,30.9,26.0,96,86,71,30.23,30.07,6,0,0,0.00
2013-2-27,41.0,38.3,34.3,40.0,35.9,31.0,96,91,76,30.08,29.44,17,6,0,1.70
2013-2-28,48.1,38.5,33.3,37.0,34.6,32.0,96,86,64,29.51,29.41,7,0,0,0.01
2013-3-1,40.8,36.5,33.6,33.0,30.6,29.0,90,80,66,29.56,29.42,6,0,0,0.00
2013-3-2,46.5,37.2,31.3,30.0,28.8,27.0,84,73,53,29.55,29.48,5,0,0,0.00
2013-3-3,40.0,34.8,30.3,34.0,30.0,26.0,93,83,71,29.52,29.43,3,0,0,0.06
2013-3-4,38.8,33.4,29.9,27.0,24.5,22.0,78,70,59,29.61,29.44,9,2,0,0.00
2013-3-5,43.3,35.9,29.9,34.0,28.9,22.0,90,76,61,29.96,29.61,6,1,0,0.00
2013-3-6,39.3,36.4,32.9,35.0,32.6,29.0,94,86,68,30.04,29.95,19,7,0,0.12
2013-3-7,33.9,32.3,30.5,31.0,29.1,27.0,94,88,79,30.01,29.90,14,5,0,0.10
2013-3-8,43.5,35.0,28.9,30.0,26.5,21.0,95,74,45,30.04,29.85,13,3,0,0.20
2013-3-9,42.3,35.8,27.8,31.0,25.7,20.0,94,68,45,30.25,30.04,7,2,0,0.03
2013-3-10,41.1,32.5,24.0,32.0,28.4,23.0,94,85,68,30.30,30.19,7,1,0,0.01
2013-3-11,51.9,40.5,31.4,39.0,34.3,30.0,94,80,50,30.21,30.03,7,1,0,0.00
2013-3-12,52.1,44.9,39.1,50.0,43.4,38.0,97,94,86,30.04,29.61,7,0,0,0.33
2013-3-13,52.7,44.4,34.6,49.0,34.1,23.0,97,70,43,29.65,29.57,7,1,0,0.00
2013-3-14,37.3,31.7,21.9,24.0,18.2,5.0,77,58,45,29.68,29.55,9,1,0,0.00
2013-3-15,41.1,28.4,18.2,28.0,11.9,4.0,83,52,27,29.72,29.50,8,1,0,0.00
2013-3-16,37.3,31.9,26.4,28.0,15.9,10.0,82,53,34,29.77,29.52,5,1,0,0.00
2013-3-17,35.9,28.6,21.2,15.0,9.2,0.0,73,46,28,30.21,29.77,8,1,0,0.00
2013-3-18,36.2,26.8,15.4,24.0,10.6,0.0,72,52,29,30.34,30.15,6,0,0,0.00
2013-3-19,33.4,31.5,25.5,32.0,30.0,24.0,96,94,73,30.14,29.52,12,3,0,0.23
2013-3-20,37.9,30.2,24.1,29.0,24.4,22.0,94,80,60,29.67,29.57,7,1,0,0.46
2013-3-21,38.4,30.9,23.4,28.0,22.4,17.0,92,72,43,29.67,29.50,6,0,0,0.19
2013-3-22,42.3,33.7,27.8,26.0,21.3,17.0,93,62,38,29.58,29.48,7,1,0,0.00
2013-3-23,43.4,35.1,26.7,24.0,20.9,18.0,76,58,40,29.62,29.49,14,2,0,0.01
2013-3-24,49.3,38.3,30.9,32.0,25.6,22.0,86,62,38,29.68,29.61,9,1,0,0.00
2013-3-25,39.6,35.1,28.7,34.0,29.8,24.0,86,81,76,29.66,29.44,11,2,0,0.00
2013-3-26,51.6,40.9,30.4,30.0,23.5,19.0,82,53,29,29.64,29.44,8,1,0,0.00
2013-3-27,54.6,42.4,32.4,35.0,26.8,21.0,87,56,35,29.75,29.61,8,1,0,0.00
2013-3-28,47.2,41.5,35.8,36.0,33.6,30.0,94,75,53,29.89,29.75,6,1,0,0.04
2013-3-29,56.9,45.9,37.2,38.0,33.2,30.0,79,63,41,29.92,29.84,4,1,0,0.00
2013-3-30,55.5,45.7,35.9,33.0,26.9,16.0,79,51,26,29.98,29.88,4,0,0,0.00
2013-3-31,57.5,43.6,28.3,39.0,28.3,18.0,85,57,30,30.00,29.68,8,1,0,0.02
2013-4-1,59.3,46.1,34.5,45.0,36.5,13.0,96,73,36,29.66,29.37,6,1,0,0.39
2013-4-2,40.2,34.3,28.9,16.0,13.0,9.0,56,42,29,29.78,29.65,11,2,0,0.01
2013-4-3,47.0,36.9,28.5,16.0,11.7,5.0,58,38,20,29.99,29.77,9,2,0,0.00
2013-4-4,56.4,42.9,29.1,24.0,16.2,12.0,59,37,19,30.14,29.89,7,1,0,0.00
2013-4-5,59.6,46.4,38.4,34.0,26.8,22.0,69,48,27,29.89,29.51,8,2,0,0.00
2013-4-6,45.4,36.3,29.0,22.0,9.9,4.0,54,35,19,30.22,29.75,10,2,0,0.00
2013-4-7,55.2,42.9,25.3,39.0,26.3,13.0,76,55,28,30.22,29.86,12,1,0,0.00
2013-4-8,64.2,50.0,42.5,42.0,39.1,34.0,90,69,32,30.00,29.82,6,1,0,0.00
2013-4-9,66.1,51.7,42.9,51.0,43.2,38.0,93,75,47,29.98,29.75,7,0,0,0.11
2013-4-10,55.3,47.3,44.0,49.0,44.4,41.0,96,90,76,29.89,29.76,6,0,0,0.59
2013-4-11,48.2,43.9,39.4,46.0,39.4,33.0,96,84,68,30.04,29.73,4,1,0,0.13
2013-4-12,41.9,37.4,35.5,37.0,32.4,27.0,100,83,58,30.10,29.71,14,5,0,0.46
2013-4-13,50.1,40.2,34.2,40.0,36.9,33.0,95,88,64,29.81,29.66,8,1,0,0.07
2013-4-14,53.7,45.3,38.0,39.0,34.4,30.0,94,68,42,30.09,29.80,5,1,0,0.00
2013-4-15,50.7,42.0,31.7,39.0,35.1,29.0,94,78,52,30.28,30.09,9,1,0,0.00
2013-4-16,66.3,51.9,35.8,52.0,41.8,34.0,94,71,44,30.29,29.90,14,1,0,0.00
2013-4-17,66.0,57.3,44.4,53.0,36.4,29.0,81,49,26,30.22,29.90,9,1,0,0.00
2013-4-18,54.6,47.5,34.9,42.0,35.6,29.0,86,65,44,30.34,30.05,9,2,0,0.00
2013-4-19,76.9,62.7,49.0,63.0,55.3,42.0,94,78,54,30.04,29.52,2,0,0,0.00
2013-4-20,67.9,53.2,43.2,64.0,40.7,24.0,95,66,37,30.08,29.47,8,1,0,0.37
2013-4-21,51.3,41.2,32.4,29.0,24.5,20.0,83,53,32,30.57,30.09,11,1,0,0.00
2013-4-22,48.0,39.7,29.6,36.0,31.4,26.0,88,73,50,30.67,30.50,13,3,0,0.00
2013-4-23,41.5,40.2,38.3,40.0,37.1,31.0,96,89,74,30.50,30.04,11,3,0,0.10
2013-4-24,64.9,51.9,41.3,55.0,47.0,40.0,96,84,67,30.03,29.67,9,2,0,0.02
2013-4-25,64.0,55.7,44.5,52.0,37.2,26.0,92,54,29,30.16,29.68,7,1,0,0.04
2013-4-26,53.7,45.8,36.1,41.0,34.9,28.0,94,68,41,30.32,30.16,12,1,0,0.00
2013-4-27,60.8,49.5,36.0,42.0,37.0,33.0,94,66,41,30.31,30.18,5,0,0,0.00
2013-4-28,59.8,50.0,37.0,45.0,39.8,34.0,91,70,45,30.23,30.12,6,1,0,0.00
2013-4-29,65.9,53.4,41.0,51.0,40.7,33.0,86,64,37,30.16,30.08,0,0,0,0.00
2013-4-30,67.5,54.0,40.2,43.0,32.9,19.0,80,49,17,30.27,30.13,5,0,0,0.00
2013-5-1,65.2,52.2,36.2,46.0,37.0,32.0,88,59,30,30.36,30.26,0,0,0,0.00
2013-5-2,71.9,51.0,38.4,49.0,41.0,36.0,90,71,35,30.39,30.27,11,1,0,0.00
2013-5-3,53.7,47.0,38.6,45.0,40.7,37.0,94,79,65,30.43,30.27,9,1,0,0.00
2013-5-4,53.2,45.6,36.8,46.0,39.7,35.0,94,81,58,30.27,30.21,7,1,0,0.00
2013-5-5,56.0,45.5,33.5,44.0,38.9,32.0,96,79,59,30.23,30.15,10,1,0,0.00
2013-5-6,57.1,46.3,34.9,50.0,43.3,33.0,97,90,75,30.18,30.05,5,0,0,0.00
2013-5-7,72.0,57.2,38.9,59.0,50.7,38.0,97,81,53,30.07,29.99,2,0,0,0.01
2013-5-8,64.5,58.2,50.6,60.0,55.3,49.0,96,90,80,30.12,29.96,7,0,0,0.04
2013-5-9,59.1,55.9,53.9,58.0,54.9,53.0,97,96,93,29.97,29.79,4,0,0,0.53
2013-5-10,71.0,59.0,53.3,63.0,56.5,52.0,98,91,76,29.84,29.78,3,0,0,0.01
2013-5-11,70.5,61.7,52.2,64.0,58.7,51.0,98,90,77,29.79,29.58,4,0,0,0.12
2013-5-12,71.4,60.4,48.6,61.0,52.1,31.0,98,77,44,29.67,29.44,6,0,0,0.06
2013-5-13,58.7,49.9,42.5,36.0,31.3,28.0,67,50,34,29.90,29.68,9,1,0,0.00
2013-5-14,60.0,49.9,38.4,38.0,32.4,28.0,82,54,31,29.93,29.83,5,1,0,0.00
2013-5-15,64.8,51.8,37.7,52.0,39.2,30.0,95,66,29,29.93,29.55,4,0,0,0.10
2013-5-16,80.8,65.3,47.2,53.0,44.9,38.0,97,56,23,29.69,29.49,5,0,0,0.00
2013-5-17,66.8,57.1,47.4,46.0,43.3,41.0,85,61,45,30.09,29.70,5,0,0,0.00
2013-5-18,67.8,54.4,44.3,52.0,46.8,42.0,93,78,39,30.19,30.10,5,0,0,0.00
2013-5-19,59.5,53.2,50.5,53.0,49.9,48.0,95,88,75,30.25,30.13,4,0,0,0.03
2013-5-20,77.9,63.5,51.1,66.0,59.1,50.0,97,86,64,30.12,29.80,4,0,0,0.07
2013-5-21,58.5,54.1,49.5,57.0,52.7,49.0,97,95,88,29.94,29.82,9,2,0,0.08
2013-5-22,56.0,52.2,49.4,53.0,50.9,49.0,98,95,86,29.93,29.76,5,1,0,1.04
2013-5-23,73.9,60.5,51.1,69.0,58.5,50.0,98,93,83,29.82,29.69,2,0,0,0.10
2013-5-24,71.5,63.3,51.5,68.0,60.9,50.0,98,92,77,29.72,29.53,6,0,0,0.76
2013-5-25,51.3,48.3,39.0,50.0,47.1,38.0,97,96,94,29.71,29.56,11,2,0,0.67
2013-5-26,58.2,47.8,38.4,45.0,40.4,37.0,96,77,54,29.94,29.54,10,2,0,0.10
2013-5-27,70.5,56.4,40.2,45.0,40.0,36.0,93,59,29,30.06,29.94,4,0,0,0.00
2013-5-28,68.2,56.2,43.2,51.0,44.4,39.0,95,68,35,30.13,30.06,2,0,0,0.00
2013-5-29,62.9,57.0,49.6,61.0,56.0,48.0,97,96,93,30.07,29.87,5,0,0,0.32
2013-5-30,88.3,73.7,57.7,70.0,64.5,57.0,98,76,45,29.95,29.87,1,0,0,0.00
2013-5-31,94.5,81.0,66.9,71.0,66.8,64.0,92,65,37,29.96,29.79,0,0,0,0.00
2013-6-1,94.1,82.7,70.4,73.0,66.8,59.0,85,61,32,29.83,29.71,0,0,0,0.00
2013-6-2,91.5,79.4,68.1,72.0,67.5,63.0,93,69,39,29.74,29.57,0,0,0,0.01
2013-6-3,77.7,69.2,59.2,68.0,63.6,50.0,96,83,57,29.73,29.62,2,0,0,0.21
2013-6-4,68.8,60.9,51.8,50.0,46.0,43.0,77,59,42,29.98,29.69,3,0,0,0.00
2013-6-5,70.2,60.5,50.1,52.0,48.0,42.0,85,65,37,30.06,29.98,1,0,0,0.00
2013-6-6,66.0,59.8,52.2,56.0,53.3,50.0,93,80,62,30.08,30.00,1,0,0,0.00
2013-6-7,57.1,54.0,51.9,54.0,52.6,51.0,97,94,88,30.01,29.75,12,2,0,1.56
2013-6-8,77.0,62.7,52.6,65.0,58.0,52.0,97,85,64,29.87,29.52,10,1,0,0.70
2013-6-9,79.4,68.1,56.5,62.0,57.8,55.0,96,72,44,30.04,29.87,0,0,0,0.00
2013-6-10,65.9,60.4,54.9,58.0,56.0,53.0,96,85,72,30.11,29.93,3,0,0,0.34
2013-6-11,59.6,55.8,53.7,56.0,54.4,53.0,97,95,86,29.93,29.47,9,2,0,1.60
2013-6-12,68.2,60.5,55.0,60.0,56.7,54.0,98,88,70,29.69,29.44,4,0,0,0.05
2013-6-13,68.5,59.0,53.0,59.0,54.7,51.0,96,86,61,29.69,29.60,3,0,0,0.18
2013-6-14,75.1,61.3,52.7,60.0,55.1,52.0,97,82,46,29.65,29.55,5,0,0,0.42
2013-6-15,77.6,66.5,55.6,56.0,51.0,45.0,92,61,33,29.80,29.65,1,0,0,0.00
2013-6-16,75.3,66.3,54.4,61.0,55.8,50.0,88,70,48,29.81,29.59,0,0,0,0.00
2013-6-17,84.6,68.8,60.0,72.0,61.6,57.0,95,80,46,29.77,29.64,2,0,0,0.07
2013-6-18,71.8,61.8,56.8,63.0,58.5,55.0,97,89,66,29.84,29.76,3,0,0,0.12
2013-6-19,71.9,63.0,54.3,56.0,52.8,49.0,97,72,47,30.02,29.81,1,0,0,0.00
2013-6-20,74.8,63.9,50.3,60.0,52.9,47.0,89,69,46,30.14,30.02,0,0,0,0.00
2013-6-21,84.2,70.5,58.3,65.0,59.1,52.0,89,70,36,30.12,30.07,3,0,0,0.00
2013-6-22,85.1,73.2,60.6,69.0,64.1,59.0,96,74,51,30.09,29.98,0,0,0,0.00
2013-6-23,89.1,74.7,62.7,75.0,67.5,61.0,95,79,59,30.02,29.84,0,0,0,0.13
2013-6-24,93.5,80.1,67.9,74.0,69.9,65.0,95,74,46,29.88,29.73,0,0,0,0.13
2013-6-25,90.3,78.1,68.3,75.0,70.3,67.0,96,79,53,29.79,29.60,0,0,0,0.58
2013-6-26,81.2,70.8,60.4,73.0,68.2,60.0,97,91,70,29.76,29.59,4,0,0,0.49
2013-6-27,66.5,61.7,58.5,63.0,60.4,58.0,98,95,87,29.77,29.67,4,0,0,0.16
2013-6-28,81.8,66.6,55.9,75.0,64.7,55.0,98,94,76,29.68,29.37,5,1,0,0.36
2013-6-29,84.9,74.6,66.7,74.0,69.1,66.0,97,84,64,29.59,29.40,0,0,0,0.00
2013-6-30,86.8,77.1,67.9,75.0,70.4,67.0,96,80,60,29.81,29.59,0,0,0,0.00
2013-7-1,80.4,72.8,68.7,74.0,70.6,68.0,97,93,79,29.96,29.81,0,0,0,1.97
2013-7-2,75.6,65.8,58.6,75.0,65.1,58.0,98,97,92,30.11,29.96,4,1,0,0.14
2013-7-3,82.6,68.8,58.8,75.0,66.2,58.0,98,91,75,30.10,29.99,0,0,0,0.01
2013-7-4,91.9,82.6,72.8,78.0,74.4,71.0,95,77,58,30.07,29.95,0,0,0,0.00
2013-7-5,93.3,84.3,75.0,79.0,75.2,73.0,92,75,56,30.03,29.89,0,0,0,0.00
2013-7-6,88.6,81.2,74.3,76.0,72.9,69.0,90,77,57,29.94,29.84,0,0,0,0.00
2013-7-7,90.0,78.7,69.5,77.0,69.9,66.0,90,75,54,29.89,29.79,0,0,0,0.00
2013-7-8,80.3,71.8,64.2,75.0,68.3,63.0,95,89,78,29.96,29.79,0,0,0,0.01
2013-7-9,71.1,66.5,63.7,65.0,63.6,62.0,96,90,81,30.00,29.94,2,0,0,0.01
2013-7-10,77.7,69.2,63.2,74.0,67.7,62.0,97,95,85,29.98,29.67,3,0,0,0.02
2013-7-11,82.6,74.7,69.3,76.0,72.4,68.0,97,93,77,29.82,29.64,0,0,0,0.07
2013-7-12,75.5,69.2,63.1,68.0,60.8,57.0,96,76,55,30.10,29.83,3,0,0,0.00
2013-7-13,76.2,68.9,61.9,66.0,62.8,60.0,95,82,60,30.21,30.10,0,0,0,0.00
2013-7-14,87.5,75.8,65.2,76.0,71.0,64.0,97,85,63,30.19,30.08,0,0,0,0.00
2013-7-15,88.6,79.1,69.8,77.0,72.6,69.0,96,81,59,30.08,29.97,0,0,0,0.00
2013-7-16,90.6,78.3,68.5,77.0,69.6,65.0,92,76,53,30.05,29.99,0,0,0,0.00
2013-7-17,93.2,80.6,67.7,77.0,72.2,66.0,96,77,53,30.06,29.85,0,0,0,0.00
2013-7-18,87.4,77.4,71.7,74.0,71.4,69.0,95,82,61,29.90,29.82,0,0,0,0.02
2013-7-19,95.7,83.1,69.4,78.0,74.3,69.0,97,77,51,29.82,29.57,0,0,0,0.01
2013-7-20,91.2,81.6,73.0,80.0,72.2,67.0,95,73,60,29.67,29.52,0,0,0,0.48
2013-7-21,75.4,70.8,65.4,67.0,64.7,58.0,95,82,58,29.89,29.68,0,0,0,0.00
2013-7-22,76.4,69.7,65.8,70.0,67.0,64.0,97,91,76,29.92,29.79,0,0,0,0.00
2013-7-23,72.7,69.3,66.4,72.0,68.3,65.0,98,96,93,29.79,29.43,0,0,0,0.89
2013-7-24,84.2,74.1,64.0,75.0,67.4,56.0,98,81,59,29.85,29.47,3,0,0,0.01
2013-7-25,65.1,60.9,58.9,59.0,55.0,51.0,96,81,72,30.01,29.86,6,1,0,0.24
2013-7-26,72.2,65.6,60.4,67.0,63.4,59.0,97,92,81,29.96,29.80,6,0,0,0.08
2013-7-27,83.8,71.6,60.0,71.0,64.6,59.0,96,80,52,29.93,29.86,2,0,0,0.00
2013-7-28,72.3,67.2,64.0,69.0,65.3,63.0,97,93,87,29.92,29.88,3,0,0,0.02
2013-7-29,73.3,67.6,64.1,70.0,66.1,63.0,98,95,88,29.94,29.85,0,0,0,0.01
2013-7-30,80.3,70.7,60.3,67.0,61.5,57.0,97,75,47,29.98,29.91,0,0,0,0.00
2013-7-31,76.9,68.8,58.7,64.0,60.7,57.0,94,77,53,30.02,29.93,0,0,0,0.00
2013-8-1,79.5,68.9,58.8,69.0,63.7,58.0,97,84,63,29.93,29.77,0,0,0,0.02
2013-8-2,82.3,70.5,64.0,70.0,64.2,60.0,97,82,48,29.77,29.66,0,0,0,0.42
2013-8-3,80.0,70.5,63.0,66.0,61.8,58.0,92,75,53,29.74,29.64,1,0,0,0.00
2013-8-4,78.7,67.9,58.5,63.0,58.1,54.0,89,72,50,29.76,29.66,0,0,0,0.00
2013-8-5,74.8,64.2,55.7,55.0,49.7,41.0,89,62,36,29.93,29.76,3,0,0,0.00
2013-8-6,75.4,63.2,50.0,58.0,51.3,45.0,90,68,43,30.05,29.93,0,0,0,0.00
2013-8-7,76.4,65.4,52.7,65.0,57.4,51.0,95,77,52,30.08,30.00,0,0,0,0.00
2013-8-8,82.0,71.4,61.9,73.0,65.9,55.0,96,83,68,30.02,29.88,0,0,0,0.10
2013-8-9,73.5,72.1,69.6,73.0,70.5,69.0,98,94,90,29.91,29.61,0,0,0,1.53
2013-8-10,82.0,72.8,61.5,70.0,62.7,53.0,98,74,40,29.89,29.66,0,0,0,0.01
2013-8-11,79.0,67.1,54.7,59.0,56.3,52.0,92,71,45,29.96,29.88,0,0,0,0.00
2013-8-12,81.6,67.8,55.9,63.0,58.9,54.0,96,76,45,29.91,29.80,0,0,0,0.00
2013-8-13,74.1,67.0,62.4,69.0,64.5,60.0,96,91,76,29.80,29.57,0,0,0,0.02
2013-8-14,74.4,66.1,59.3,63.0,56.8,51.0,98,74,50,29.82,29.54,4,0,0,0.00
2013-8-15,77.5,64.3,52.7,58.0,54.0,50.0,91,71,46,29.99,29.83,0,0,0,0.00
2013-8-16,79.2,65.7,52.8,60.0,56.3,51.0,94,74,45,30.07,29.98,1,0,0,0.00
2013-8-17,75.4,65.3,55.4,63.0,57.8,54.0,95,78,55,30.17,30.07,0,0,0,0.00
2013-8-18,78.8,67.3,55.6,67.0,61.6,54.0,97,83,60,30.17,29.96,0,0,0,0.00
2013-8-19,81.6,71.0,60.4,67.0,62.8,59.0,95,77,55,29.96,29.82,0,0,0,0.00
2013-8-20,85.6,73.4,62.9,69.0,64.6,61.0,92,75,50,29.97,29.85,0,0,0,0.00
2013-8-21,88.6,75.1,63.4,72.0,66.3,61.0,93,76,49,30.02,29.89,0,0,0,0.00
2013-8-22,88.0,76.3,65.1,72.0,67.8,63.0,92,77,50,29.91,29.69,0,0,0,0.00
2013-8-23,79.1,70.5,61.5,69.0,61.1,51.0,91,73,52,30.02,29.70,0,0,0,0.00
2013-8-24,73.8,62.8,51.6,55.0,50.0,46.0,89,66,38,30.21,30.02,3,0,0,0.00
2013-8-25,76.5,65.3,52.4,62.0,54.4,49.0,91,70,43,30.25,30.05,0,0,0,0.00
2013-8-26,81.9,72.0,63.3,70.0,63.9,57.0,91,76,62,30.05,29.75,2,0,0,0.00
2013-8-27,80.5,72.4,63.9,70.0,66.7,62.0,95,83,64,29.79,29.72,0,0,0,0.00
2013-8-28,76.4,67.1,60.3,69.0,64.0,59.0,97,90,75,29.89,29.75,5,0,0,0.00
2013-8-29,65.3,63.7,61.4,65.0,61.4,59.0,97,92,85,29.99,29.86,11,1,0,0.03
2013-8-30,83.8,70.3,61.1,70.0,64.5,59.0,94,82,59,29.92,29.69,0,0,0,0.00
2013-8-31,81.1,74.3,68.6,75.0,70.7,66.0,94,88,81,29.72,29.66,0,0,0,0.00
2013-9-1,85.4,74.8,69.4,75.0,71.4,68.0,97,89,67,29.77,29.66,0,0,0,0.21
2013-9-2,72.2,70.3,68.5,71.0,69.4,67.0,98,97,94,29.76,29.61,0,0,0,1.19
2013-9-3,80.3,71.9,63.7,74.0,68.8,60.0,98,90,73,29.68,29.58,0,0,0,0.00
2013-9-4,81.1,68.6,58.6,63.0,59.3,57.0,94,74,47,29.79,29.67,0,0,0,0.00
2013-9-5,66.2,61.0,49.9,61.0,55.2,45.0,92,81,68,30.04,29.74,2,0,0,0.01
2013-9-6,69.6,56.3,43.0,50.0,45.4,40.0,92,70,39,30.13,29.96,4,0,0,0.00
2013-9-7,78.5,63.8,49.4,63.0,53.9,46.0,89,72,42,29.96,29.72,1,0,0,0.00
2013-9-8,70.8,63.0,48.2,61.0,51.7,42.0,83,68,47,29.98,29.62,8,0,0,0.00
2013-9-9,69.9,56.3,43.1,54.0,46.4,40.0,91,72,41,30.12,29.98,1,0,0,0.00
2013-9-10,72.6,64.9,54.9,70.0,61.8,50.0,96,89,82,30.03,29.91,2,0,0,0.03
2013-9-11,94.6,79.7,69.0,78.0,72.8,68.0,97,81,52,29.94,29.80,0,0,0,0.10
2013-9-12,86.0,72.5,65.9,76.0,69.6,65.0,98,91,72,29.84,29.56,0,0,0,1.06
2013-9-13,74.7,65.9,56.9,70.0,64.6,56.0,98,95,82,29.64,29.46,2,0,0,0.45
2013-9-14,68.1,59.2,52.4,59.0,54.8,50.0,95,86,67,29.93,29.63,4,0,0,0.01
2013-9-15,70.9,58.3,48.3,59.0,51.8,47.0,96,81,53,30.04,29.92,0,0,0,0.01
2013-9-16,66.2,56.7,45.9,58.0,51.3,38.0,93,82,69,30.15,29.89,9,0,0,0.01
2013-9-17,64.6,50.5,37.8,49.0,41.9,36.0,93,74,50,30.31,30.16,6,0,0,0.00
2013-9-18,73.7,57.0,43.1,54.0,48.0,42.0,95,75,39,30.20,30.01,2,0,0,0.00
2013-9-19,75.4,59.5,48.8,56.0,51.5,47.0,95,78,40,30.02,29.92,1,0,0,0.00
2013-9-20,70.4,59.2,48.2,59.0,54.3,47.0,97,85,57,29.99,29.90,0,0,0,0.01
2013-9-21,75.4,62.1,47.1,65.0,57.7,46.0,98,86,66,29.91,29.63,3,0,0,0.01
2013-9-22,72.0,63.9,51.9,66.0,58.3,45.0,96,83,56,29.69,29.48,9,0,0,0.49
2013-9-23,61.6,51.7,43.7,46.0,42.8,40.0,87,73,56,29.87,29.70,5,0,0,0.00
2013-9-24,63.8,51.2,42.0,48.0,43.7,39.0,91,77,51,29.86,29.71,8,0,0,0.00
2013-9-25,63.5,53.1,43.7,52.0,47.9,42.0,95,83,61,29.88,29.76,0,0,0,0.00
2013-9-26,64.2,56.1,48.3,53.0,50.0,46.0,93,81,64,30.02,29.88,5,0,0,0.00
2013-9-27,67.0,57.8,51.3,56.0,52.1,50.0,95,82,57,30.14,30.02,1,0,0,0.00
2013-9-28,69.2,56.6,48.3,59.0,52.2,47.0,97,86,60,30.22,30.14,0,0,0,0.00
2013-9-29,64.5,52.5,45.0,56.0,48.4,44.0,98,87,49,30.16,30.01,0,0,0,0.01
2013-9-30,62.8,52.1,45.6,56.0,49.1,45.0,97,90,61,30.03,29.86,0,0,0,0.01
2013-10-1,76.6,58.3,45.2,60.0,52.6,44.0,97,83,48,29.86,29.73,0,0,0,0.01
2013-10-2,79.7,65.8,54.0,64.0,58.7,53.0,95,79,56,29.82,29.69,2,0,0,0.01
2013-10-3,77.7,63.4,54.1,58.0,53.9,48.0,92,74,37,29.96,29.82,0,0,0,0.00
2013-10-4,64.5,58.3,51.2,59.0,55.2,50.0,96,89,77,29.97,29.92,0,0,0,0.01
2013-10-5,64.1,58.8,56.2,57.0,55.2,54.0,97,88,76,30.02,29.94,2,0,0,0.00
2013-10-6,57.1,55.1,52.7,56.0,52.9,48.0,97,93,78,30.14,30.01,7,0,0,0.19
2013-10-7,73.8,65.1,56.5,70.0,62.9,56.0,98,93,82,30.04,29.69,2,0,0,0.06
2013-10-8,65.0,55.7,44.2,55.0,46.3,41.0,90,73,44,30.27,29.77,2,0,0,0.00
2013-10-9,59.9,47.8,37.5,49.0,43.4,36.0,96,85,63,30.37,30.26,2,0,0,0.00
2013-10-10,61.2,49.3,39.9,54.0,46.6,39.0,97,91,73,30.26,30.08,1,0,0,0.01
2013-10-11,69.2,54.4,45.6,56.0,49.4,45.0,97,85,49,30.07,30.00,0,0,0,0.00
2013-10-12,56.1,52.4,47.0,55.0,50.8,46.0,97,94,89,30.29,30.05,5,1,0,0.01
2013-10-13,60.6,48.8,41.3,52.0,45.2,40.0,98,88,62,30.35,30.28,4,0,0,0.01
2013-10-14,64.2,49.4,35.3,51.0,44.3,34.0,97,84,44,30.29,30.13,4,0,0,0.01
2013-10-15,60.8,55.5,51.2,55.0,52.7,50.0,96,90,77,30.15,30.07,2,0,0,0.00
2013-10-16,60.2,55.1,49.5,55.0,53.1,49.0,98,93,78,30.07,29.80,4,0,0,0.00
2013-10-17,75.0,60.9,53.5,61.0,54.3,49.0,98,81,48,29.80,29.59,3,0,0,0.00
2013-10-18,68.9,60.7,51.7,61.0,51.4,39.0,97,74,47,29.77,29.48,6,0,0,0.10
2013-10-19,66.7,54.6,39.6,49.0,43.7,37.0,93,68,44,29.85,29.64,4,0,0,0.00
2013-10-20,62.6,53.7,46.0,49.0,41.5,35.0,94,66,40,29.89,29.57,5,0,0,0.01
2013-10-21,67.6,50.9,35.8,51.0,41.5,34.0,95,72,41,29.99,29.87,3,0,0,0.00
2013-10-22,64.0,52.7,44.0,53.0,46.9,38.0,96,81,62,29.87,29.59,5,0,0,0.01
2013-10-23,52.6,45.4,34.2,39.0,36.5,32.0,95,72,53,29.68,29.47,2,0,0,0.00
2013-10-24,54.1,45.1,37.9,37.0,32.2,28.0,87,63,41,29.75,29.51,5,0,0,0.00
2013-10-25,50.3,40.3,32.6,36.0,30.5,27.0,89,70,43,30.02,29.75,7,1,0,0.00
2013-10-26,54.9,43.0,27.0,36.0,30.2,25.0,94,64,35,30.02,29.76,7,1,0,0.00
2013-10-27,56.7,46.7,37.0,41.0,35.9,28.0,93,68,47,29.92,29.69,10,1,0,0.04
2013-10-28,59.0,44.3,34.8,38.0,32.0,24.0,82,64,44,30.23,29.92,7,1,0,0.00
2013-10-29,49.9,35.8,25.8,30.0,25.9,22.0,90,70,34,30.33,30.23,3,0,0,0.00
2013-10-30,49.3,36.5,28.3,39.0,32.8,26.0,94,87,65,30.24,30.08,2,0,0,0.02
2013-10-31,60.4,45.2,30.0,58.0,43.6,29.0,97,94,85,30.12,29.67,6,0,0,0.09
2013-11-1,71.3,65.2,58.0,63.0,57.9,53.0,96,78,62,29.66,29.28,12,1,0,0.04
2013-11-2,67.2,55.4,47.4,53.0,46.3,42.0,89,73,40,29.60,29.47,4,0,0,0.00
2013-11-3,50.4,40.8,28.8,46.0,32.3,20.0,93,73,50,30.31,29.61,5,0,0,0.04
2013-11-4,44.2,32.0,25.1,23.0,19.8,17.0,79,63,35,30.59,30.31,4,0,0,0.00
2013-11-5,49.9,36.0,24.7,34.0,28.0,20.0,89,74,48,30.60,30.39,3,0,0,0.00
2013-11-6,62.0,49.8,37.5,49.0,41.2,34.0,87,73,51,30.39,29.89,5,0,0,0.00
2013-11-7,64.0,53.6,38.3,58.0,49.4,34.0,94,85,75,29.89,29.55,7,1,0,0.12
2013-11-8,47.3,38.9,32.6,35.0,29.4,25.0,86,70,51,29.94,29.68,6,1,0,0.01
2013-11-9,44.4,38.4,31.7,30.0,25.2,22.0,72,60,45,30.07,29.93,6,0,0,0.00
2013-11-10,50.7,43.7,37.5,44.0,38.0,29.0,96,81,68,29.92,29.61,4,0,0,0.08
2013-11-11,52.0,44.4,38.7,35.0,29.7,27.0,74,57,39,29.96,29.69,5,1,0,0.01
2013-11-12,47.9,35.1,26.7,38.0,23.1,16.0,92,62,55,30.05,29.75,8,1,0,0.03
2013-11-13,36.6,28.7,23.4,18.0,14.3,12.0,76,56,40,30.15,30.01,8,1,0,0.00
2013-11-14,52.4,38.9,28.0,30.0,23.5,15.0,70,55,39,30.01,29.89,6,1,0,0.00
2013-11-15,58.2,43.8,31.5,29.0,22.8,18.0,67,46,25,30.06,29.98,8,0,0,0.00
2013-11-16,58.9,42.4,31.4,35.0,30.1,26.0,91,64,29,30.20,30.05,0,0,0,0.00
2013-11-17,52.2,42.5,31.2,51.0,41.3,29.0,97,95,90,30.21,29.76,1,0,0,0.09
2013-11-18,65.6,56.8,47.8,61.0,48.8,33.0,98,77,46,29.74,29.39,5,0,0,0.24
2013-11-19,47.4,38.4,31.4,33.0,22.2,17.0,61,53,41,30.14,29.51,9,2,0,0.00
2013-11-20,42.3,32.7,26.5,18.0,15.2,13.0,62,50,33,30.50,30.14,13,1,0,0.00
2013-11-21,46.7,33.3,20.5,27.0,18.7,13.0,81,58,28,30.52,30.25,9,0,0,0.00
2013-11-22,42.8,40.1,35.9,41.0,37.2,27.0,97,89,69,30.24,29.68,3,0,0,0.15
2013-11-23,44.6,37.7,29.9,44.0,27.9,14.0,97,69,46,29.77,29.63,8,1,0,0.00
2013-11-24,29.3,23.6,19.5,20.0,5.3,-3.0,83,47,33,30.02,29.63,20,4,0,0.00
2013-11-25,31.7,23.8,17.2,14.0,-0.1,-7.0,54,37,20,30.21,30.02,12,1,0,0.00
2013-11-26,35.7,32.7,28.7,32.0,24.1,15.0,95,72,49,30.21,29.96,5,0,0,0.13
2013-11-27,61.1,48.9,33.7,60.0,47.6,32.0,97,95,84,29.95,29.09,11,2,0,1.70
2013-11-28,36.8,30.8,21.7,32.0,16.8,7.0,85,58,37,30.30,29.28,10,2,0,0.00
2013-11-29,31.5,23.6,16.8,13.0,8.8,2.0,81,55,29,30.62,30.29,7,0,0,0.00
2013-11-30,33.3,23.0,11.4,23.0,15.4,8.0,86,73,58,30.68,30.32,3,0,0,0.00
2013-12-1,37.3,34.0,30.3,36.0,31.2,23.0,96,89,75,30.30,29.90,6,0,0,0.21
2013-12-2,39.2,36.9,35.2,38.0,35.8,34.0,97,96,93,29.90,29.80,3,0,0,0.01
2013-12-3,47.8,37.6,32.4,39.0,34.7,30.0,97,90,69,29.82,29.73,2,0,0,0.00
2013-12-4,40.4,34.6,29.4,30.0,27.8,25.0,91,77,63,30.08,29.81,4,0,0,0.00
2013-12-5,46.1,37.0,27.8,45.0,35.2,26.0,97,93,87,30.11,29.79,0,0,0,0.04
2013-12-6,52.4,43.9,33.2,52.0,41.6,32.0,97,92,74,30.04,29.73,3,0,0,0.12
2013-12-7,38.4,32.2,25.3,34.0,26.4,18.0,96,80,56,30.32,29.96,10,1,0,0.17
2013-12-8,29.2,25.9,20.7,21.0,17.8,15.0,86,72,57,30.46,30.32,3,0,0,0.00
2013-12-9,39.9,33.0,25.8,39.0,30.5,17.0,97,91,66,30.38,29.75,7,0,0,0.38
2013-12-10,34.5,30.9,23.7,32.0,28.2,15.0,97,90,69,29.83,29.65,5,0,0,0.01
2013-12-11,32.4,26.0,21.2,20.0,16.8,15.0,82,69,51,30.05,29.85,7,1,0,0.00
2013-12-12,23.5,18.5,12.5,19.0,7.7,0.0,87,65,37,30.13,29.91,10,1,0,0.00
2013-12-13,28.3,19.4,10.9,19.0,10.0,-1.0,79,67,55,30.29,29.84,8,2,0,0.00
2013-12-14,25.5,13.8,6.9,24.0,5.4,-4.0,94,70,50,30.50,30.10,6,1,0,0.00
2013-12-15,32.5,24.2,16.1,32.0,22.9,14.0,97,94,91,30.08,29.30,20,3,0,0.00
2013-12-16,26.6,20.5,11.8,21.0,16.3,6.0,93,84,72,30.08,29.59,6,0,0,0.02
2013-12-17,17.4,10.7,0.0,14.0,6.7,-5.0,91,84,73,30.16,29.86,6,0,0,0.00
2013-12-18,33.0,24.3,14.1,26.0,20.4,12.0,92,85,70,29.92,29.74,5,0,0,0.14
2013-12-19,41.1,32.1,26.5,27.0,24.7,22.0,84,74,54,29.98,29.82,6,1,0,0.08
2013-12-20,48.0,38.4,31.4,38.0,32.5,27.0,91,80,63,30.00,29.78,2,0,0,0.13
2013-12-21,56.0,46.6,38.5,46.0,40.6,33.0,94,80,65,29.82,29.71,7,0,0,0.01
2013-12-22,45.9,35.1,30.3,45.0,34.0,30.0,97,96,94,29.93,29.69,11,1,0,0.22
2013-12-23,35.8,31.8,29.6,35.0,31.1,29.0,97,97,96,29.99,29.85,2,0,0,0.36
2013-12-24,34.9,30.7,24.9,34.0,23.0,11.0,100,75,53,30.06,29.93,6,0,0,0.00
2013-12-25,24.4,17.2,9.9,13.0,5.5,-2.0,78,61,44,30.43,30.07,9,1,0,0.00
2013-12-26,29.6,21.7,14.7,27.0,18.3,9.0,94,87,76,30.38,29.95,1,0,0,0.01
2013-12-27,33.7,26.5,20.4,24.0,20.6,18.0,92,79,61,30.12,30.05,6,0,0,0.07
2013-12-28,45.6,34.0,23.1,31.0,26.1,20.0,87,73,53,30.07,29.84,7,1,0,0.03
2013-12-29,40.1,35.1,28.8,38.0,31.3,26.0,96,86,71,29.90,29.32,5,1,0,1.03
2013-12-30,41.9,31.6,14.6,36.0,23.6,-1.0,96,74,42,30.05,29.38,6,1,0,0.02
2013-12-31,22.4,14.7,8.0,13.0,2.9,-2.0,80,61,39,30.05,29.90,5,0,0,0.00
2014-1-1,26.4,19.6,16.0,11.0,8.2,6.0,78,62,44,30.27,30.03,6,1,0,0.00
2014-1-2,17.7,7.5,-1.7,12.0,3.5,-5.0,88,84,73,30.25,29.80,12,2,0,0.00